Location: *
(32.8330°N, 35.0699°E)
Time: 10:52:21
(UTC+00:00)

Daily predictions for brighter satellites

Satellite Brightness Start Highest point End
(mag) Time Altitude Azimuth Time Altitude Azimuth Time Altitude Azimuth
STARLINK-26 4.1 14:56:31 10° SSW 14:59:43 34° SE 15:02:57 10° ENE
Cosmos 1782 Rocket 4.1 14:57:10 10° NNE 15:01:12 37° E 15:05:12 10° SSE
Lacrosse 5 2.1 14:58:14 10° SSW 15:03:13 59° SE 15:08:13 10° NE
Cosmos 1703 Rocket 3.8 15:00:43 10° S 15:05:11 78° W 15:09:41 10° N
Sakura Rocket 4.0 15:01:53 10° WSW 15:06:14 54° S 15:12:08 10° ESE
Okean 1 3.3 15:05:02 10° S 15:08:56 61° E 15:12:52 10° NNE
ISS -0.5 15:07:45 10° W 15:09:58 17° SW 15:12:12 10° S
NOAA 12 4.4 15:05:38 10° SE 15:10:37 44° ENE 15:15:37 10° N
Gbstr 26 Del rocket 4.3 15:05:48 10° SW 15:13:29 79° SE 15:19:55 10° NE
STARLINK-45 4.3 15:09:48 10° SSW 15:13:31 37° SE 15:16:58 12° ENE
STARLINK-75 4.1 15:11:28 10° SSW 15:15:15 41° SE 15:18:42 12° ENE
Shenzhou-11 Module 1.8 15:13:44 10° WNW 15:16:29 78° SSW 15:19:11 10° SE
STARLINK-76 4.4 15:12:57 10° SSW 15:16:38 35° SE 15:19:52 13° ENE
Cosmos 2221 Rocket 3.9 15:13:31 10° SSE 15:17:45 44° E 15:21:59 10° NNE
STARLINK 4.3 15:14:33 10° SSW 15:18:15 37° SE 15:21:26 13° ENE
Okean 2 Rocket 4.1 15:14:53 10° NNE 15:18:36 25° ENE 15:22:18 10° SE
STARLINK-32 4.2 15:16:11 10° SSW 15:19:55 39° SE 15:23:02 14° ENE
Cosmos 405 Rocket 4.2 15:17:55 10° NE 15:20:13 16° ENE 15:22:30 10° ESE
Meteor 1-19 Rocket 4.3 15:15:43 10° S 15:21:04 54° E 15:26:21 10° NNE
STARLINK-40 4.2 15:17:47 10° SSW 15:21:33 40° SE 15:24:37 14° ENE
STARLINK-44 4.1 15:19:25 10° SSW 15:23:12 42° SE 15:26:13 15° ENE
SMAP 3.3 15:19:30 10° S 15:24:08 78° WSW 15:28:48 10° NNW
STARLINK-37 4.0 15:21:06 10° SSW 15:24:57 47° SE 15:27:57 16° ENE
Sich 1 Rocket 3.6 15:21:07 10° N 15:25:25 53° E 15:29:42 10° SSE
H-2A R/B 2.9 15:22:28 10° S 15:26:08 71° W 15:29:48 10° NNW
STARLINK-36 4.0 15:22:33 10° SSW 15:26:23 45° SE 15:29:17 16° ENE
Aureole 3 Rocket 3.8 15:26:58 16° ENE 15:27:59 18° E 15:30:29 10° SE
STARLINK-41 4.0 15:24:16 10° SSW 15:28:06 46° SE 15:30:56 17° ENE
STARLINK-64 3.9 15:25:55 10° SSW 15:29:46 49° SE 15:32:32 18° ENE
Okean 1-7 4.2 15:26:34 10° SSW 15:30:43 44° W 15:34:55 10° N
Cosmos 1441 Rocket 3.6 15:27:17 10° NNW 15:31:00 63° W 15:34:40 10° S
STARLINK-35 3.8 15:27:24 10° SSW 15:31:18 52° SE 15:34:02 18° ENE
Cosmos 2297 3.7 15:25:57 10° NNW 15:31:39 89° ENE 15:37:17 10° SSE
OAO 2 Rocket 3.5 15:27:22 10° WNW 15:32:18 70° SSW 15:37:19 10° ESE
STARLINK-51 3.7 15:29:11 10° SSW 15:33:06 55° SE 15:35:46 19° ENE
CZ-4 R/B 2.2 15:30:47 10° SE 15:34:04 27° ENE 15:37:21 10° NNE
STARLINK-30 3.7 15:30:42 10° SSW 15:34:38 57° SE 15:37:14 20° ENE
STARLINK-33 3.6 15:32:22 10° SSW 15:36:19 60° SE 15:38:53 21° ENE
Genesis I 4.3 15:33:14 10° NW 15:36:57 47° WSW 15:40:35 10° S
STARLINK-50 3.6 15:33:59 10° SSW 15:37:56 62° SE 15:40:26 21° NE
Cosmos 1867 3.7 15:32:47 10° NNW 15:38:06 51° ENE 15:43:21 10° SE
YAOGAN 6 2.8 15:35:39 10° SSE 15:39:01 42° ENE 15:42:26 10° N
STARLINK 3.7 15:35:24 10° SSW 15:39:19 56° SE 15:41:39 23° ENE
Delta 2 Rocket 3.9 15:35:50 10° W 15:41:06 62° N 15:44:04 22° ENE
STARLINK-56 3.5 15:37:22 10° SW 15:41:21 68° SE 15:43:43 23° NE
Cosmos 1655 Rocket 4.0 15:35:09 10° S 15:41:22 64° E 15:47:34 10° NNE
Starlink (trailer) 3.5 15:38:53 10° SW 15:42:52 71° SE 15:45:11 24° NE
Cosmos 1515 3.6 15:39:11 10° S 15:42:55 66° E 15:46:40 10° NNE
Cosmos 676 Rocket 4.5 15:38:25 10° SSW 15:43:30 60° WNW 15:48:38 10° N
OAO 3 Copernicus 4.3 15:38:40 10° W 15:43:44 72° N 15:46:53 23° ENE
STARLINK-38 3.5 15:40:32 10° SW 15:44:31 74° SE 15:46:47 25° NE
STARLINK-65 3.5 15:42:09 10° SW 15:46:09 77° SE 15:48:20 26° NE
YAOGAN 1 3.1 15:44:33 10° SE 15:48:25 33° ENE 15:52:18 10° N
Cosmos 1300 Rocket 3.9 15:46:44 10° N 15:50:47 39° E 15:54:50 10° SSE
STARLINK-69 3.4 15:47:08 10° SW 15:51:09 89° ESE 15:53:11 28° NE
COSMO-SKYMED 1 2.7 15:48:12 10° N 15:52:32 75° WNW 15:56:51 10° SSW
Cosmos 1975 2.7 15:48:35 10° N 15:52:36 79° E 15:56:37 10° S
STARLINK-66 3.5 15:48:53 10° SW 15:52:54 89° NW 15:54:52 29° NE
Cosmos 1378 Rocket 4.4 15:49:27 10° SSE 15:53:03 27° E 15:53:03 27° E
Okean-O 3.1 15:51:10 10° S 15:55:33 65° WSW 15:59:58 10° NNW
Cosmos 1943 3.1 15:50:41 10° SSW 15:56:18 76° ESE 16:00:57 15° NNE
Okean 3 3.5 15:52:51 10° S 15:57:02 78° W 16:01:12 10° N
Meteor 2-9 Rocket 4.2 15:51:22 10° N 15:57:10 68° E 16:02:48 10° SSE
Meteor 1-12 Rocket 4.5 15:51:57 10° N 15:57:29 45° ENE 16:02:53 10° SSE
STARLINK-70 3.5 15:53:50 10° SW 15:57:51 79° NW 15:59:37 32° NE
STARLINK-68 3.6 15:55:37 10° SW 15:59:37 72° NW 16:01:22 32° NNE
USA 267 3.4 15:53:54 12° ESE 15:59:52 52° NE 16:06:10 10° NNW
STARLINK-58 3.6 15:57:12 10° SW 16:01:12 72° NW 16:02:51 34° NNE
IRIDIUM 104 4.3 15:56:23 10° SSE 16:01:30 62° E 16:06:38 10° N
GPS 2-05 Rocket1 2.7 15:59:55 10° W 16:02:26 48° NNW 16:02:26 48° NNW
STARLINK-62 3.7 15:58:56 10° SW 16:02:55 66° NW 16:04:32 34° NNE
STARLINK-63 3.7 16:00:30 10° SW 16:04:29 67° NW 16:06:00 35° NNE
STARLINK-72 3.8 16:03:44 10° SW 16:07:43 65° NW 16:09:04 38° NNE
Meteor 1-13 Rocket 4.1 16:02:50 10° S 16:08:25 68° E 16:13:13 14° NNE
IRIDIUM 114 4.2 16:05:26 10° S 16:10:37 77° E 16:15:51 10° N
STARLINK-59 4.0 16:07:10 10° WSW 16:11:06 57° NW 16:12:22 38° NNE
Cosmos 2266 Rocket 3.9 16:05:43 10° S 16:12:06 77° E 16:18:29 10° N
Envisat 4.0 16:08:22 10° S 16:13:14 49° W 16:18:10 10° NNW
STARLINK-55 4.1 16:10:31 10° WSW 16:14:26 53° NW 16:15:33 39° N
Cosmos 2369 Rocket 2.2 16:09:42 10° N 16:15:15 56° ENE 16:20:48 10° SE
STARLINK-28 4.2 16:12:13 10° WSW 16:16:07 50° NW 16:17:10 39° N
Cosmos 1741 Rocket 3.9 16:11:33 10° SSW 16:16:49 87° WNW 16:20:05 24° NNE
S3M 3.9 16:10:51 10° N 16:17:01 90° E 16:23:08 10° S
STARLINK-53 4.3 16:15:32 10° WSW 16:19:24 47° NW 16:20:20 39° N
IRIDIUM 103 4.3 16:14:34 10° S 16:19:47 85° W 16:25:01 10° N
Cosmos 405 3.0 16:16:35 10° S 16:19:46 72° S 16:19:46 72° S
STARLINK-54 4.3 16:17:14 10° WSW 16:21:05 45° NW 16:21:57 38° N
USA 229 DEB 4.2 16:14:29 10° NNW 16:21:25 42° NE 16:23:11 37° E
USA 229 4.2 16:14:36 10° NNW 16:21:30 42° NE 16:23:10 37° E
Meteor 1-23 Rocket 4.5 16:16:09 10° SSE 16:21:35 45° E 16:22:00 45° E
USA 81 3.9 16:17:40 10° S 16:22:54 78° E 16:26:31 21° N
STARLINK-34 4.4 16:20:36 10° WSW 16:24:24 41° NW 16:25:08 37° NNW
NOSS 2-1 (C) 3.6 16:20:55 10° SSW 16:23:42 47° S 16:23:42 47° S
Cosmos 1461 3.7 16:22:56 10° SW 16:26:41 44° WNW 16:27:40 36° NNW
STARLINK-81 4.3 16:23:40 10° WSW 16:27:30 43° NW 16:28:01 40° NNW
NOSS 2-1 (D) 3.7 16:24:33 10° SSW 16:27:18 48° SSW 16:27:18 48° SSW
BREEZE-M DEB (TANK) 3.9 16:26:55 10° NW 16:27:45 17° NW 16:27:45 17° NW
Cosmos 2151 Rocket 3.7 16:25:54 10° N 16:30:18 72° W 16:34:39 10° S
STARLINK-77 4.5 16:27:01 10° WSW 16:30:49 40° NW 16:31:12 39° NNW
Uosat 12 SS-18 rocket 4.2 16:28:56 10° NNW 16:32:36 59° NNW 16:32:36 59° NNW
Cosmos 1943 Rocket 2.2 16:28:17 10° NNW 16:33:54 81° WSW 16:39:25 10° SSE
OAO 3 Rocket 4.1 16:29:51 10° W 16:34:18 43° SSW 16:35:37 34° SSE
CZ-4C R/B 3.3 16:29:54 10° WSW 16:34:21 35° NW 16:37:20 21° N
ATLAS 3B CENTAUR R/B 4.3 16:33:17 10° SSW 16:39:49 35° SE 16:43:11 31° ESE
CSL-04 Rocket 3.9 16:36:09 10° S 16:41:23 67° WSW 16:46:40 10° NNW
CZ-3B R/B 2.3 16:41:13 10° WSW 16:45:32 45° SSE 16:45:58 44° SSE
Lacrosse 5 3.8 16:42:39 10° W 16:46:29 21° NW 16:48:08 18° NNW
Cosmos 2315 Rocket 4.0 16:59:42 10° N 17:06:00 79° W 17:12:13 10° S
CZ-4 R/B 4.3 17:06:45 10° SW 17:09:05 15° W 17:11:24 10° WNW
ADEOS Rocket 3.6 17:12:23 43° SSW 17:12:23 43° SSW 17:16:08 10° SSW
USA 267 4.4 17:41:20 32° SSW 17:42:53 36° SW 17:48:49 10° WNW
